sat.trackr.live / text

‹ back to catalog

STARLINK-30169

NORAD 57499 · 2023-113E

PAYLOAD ACTIVE UNKNOWN

§ Identity

Operator
Country
US
Launch date
2023-08-07
Launch site
AFETR
Launch vehicle
Mass (kg)
RCS (m²)

Purposes: comms

External: N2YO · Heavens-Above · Gunter

§ Orbital elements

Epoch: 2026-05-24T19:23:06.903456Z

Period
94.27 min
Inclination
43.0047°
Eccentricity
0.0001996
Mean motion
15.27570923 rev/d
Perigee alt
481.7 km
Apogee alt
484.4 km
Semi-major
6,861.2 km
B*
2.6332e-5
RAAN
292.0139°
Arg perigee
263.0680°
Mean anomaly
96.9944°
Rev number
15,532

§ Raw data

STARLINK-301691 57499U 23113E   26144.80771879  .00000462  00000+0  26332-4 0  99992 57499  43.0047 292.0139 0001996 263.0680  96.9944 15.27570923155328

JSON: /api/v1/satellites/57499 · /tle

For live sub-satellite position, see the globe view (requires WebGL).

§ Visibility from observer

Set your observer location to see the next 7 days of passes ≥ 10°. The values pass through the URL so the page stays shareable.

No JS? Fill the form by hand. The geolocation button needs JavaScript.